Find Hawk 10C

NORAD ID: 60575 Int'l Des: 2024-149 Owner: HE360 Country: US operational
LEOCIRCULARRETROGRADESSO

Live-Position

3D-Globus wird geladen...

Über Hawk 10C

Beschreibung wird geladen...

Nächste Überflüge

Passes for default location (London). Set your location on the main map for personalized predictions.

Höhenverlauf

Loading altitude history...

Zweizeiliger Elementsatz

1 60575U 24149DM 26107.11934597 .00000468 00000-0 46399-4 0 9991
2 60575 97.6751 182.9012 0001905 257.2165 102.8844 14.96325640 90855
Epoch: 17. Apr. 2026 • Age: 16 hours

Aktueller Status

Höhe 585.7 km
Geschwindigkeit 7.57 km/s
Subsatellitenpunkt 42.70°N, 43.96°E
Startdatum 16. Aug. 2024
Alter 1.6 years
Typ other

Technische Details

Klassifizierung Payload
Masse 31.00 kg
Trockenmasse 30.00 kg
Gesamtmasse 31.00 kg
Länge 0.45 m
Durchmesser 0.30 m
Spannweite 1.00 m
Form Box + 2 pan
Hersteller UTIAS
Bus-Typ Hawk2G
Phasenstatus In Orbit
Besitzer/Staat HE360/US

Most Searched